FHV1116 KMEM-KPHL

Flight info

Callsign FHV1116
Flight time 1h 51m
Altitude 37000
Route GOETZ7 DIYAB WAKOL Q34 GVE PAATS4
Aircraft A319/M-SDE3FGHIRWY/LB1

Departure

Time 2026-05-07 00:03
Airport Memphis International Airport (KMEM)

Arrival

Time 2026-05-07 01:54
Airport Philadelphia International Airport (KPHL)
Time Latitude Longitude Altitude Speed Heading
2026-05-06 23:36 35.04175 -89.97994 331 ft 0 kts 222°
2026-05-06 23:37 35.04172 -89.97996 331 ft 0 kts 223°
2026-05-06 23:38 35.04191 -89.98042 329 ft 0 kts 223°
2026-05-06 23:53 35.04191 -89.98041 337 ft 0 kts 223°
2026-05-06 23:53 35.04191 -89.98042 337 ft 0 kts 223°
2026-05-06 23:53 35.04191 -89.98041 337 ft 0 kts 223°
2026-05-06 23:54 35.04191 -89.98042 337 ft 0 kts 223°
2026-05-06 23:54 35.04191 -89.98041 337 ft 0 kts 223°
2026-05-06 23:54 35.04191 -89.98042 337 ft 0 kts 223°
2026-05-06 23:55 35.04191 -89.98041 337 ft 0 kts 223°
2026-05-06 23:56 35.04195 -89.98038 334 ft 3 kts 223°
2026-05-06 23:56 35.04214 -89.98016 333 ft 3 kts 223°
2026-05-06 23:57 35.04230 -89.98002 335 ft 4 kts 171°
2026-05-06 23:57 35.04251 -89.98014 334 ft 4 kts 142°
2026-05-06 23:57 35.04258 -89.98020 334 ft 0 kts 142°
2026-05-06 23:59 35.04246 -89.98008 334 ft 12 kts 134°
2026-05-06 23:59 35.04150 -89.97853 336 ft 22 kts 151°
2026-05-07 00:00 35.04101 -89.97838 336 ft 12 kts 175°
2026-05-07 00:00 35.03889 -89.97834 335 ft 38 kts 179°
2026-05-07 00:00 35.03632 -89.97829 335 ft 36 kts 178°
2026-05-07 00:00 35.03396 -89.97824 333 ft 31 kts 179°
2026-05-07 00:01 35.03189 -89.97819 334 ft 28 kts 180°
2026-05-07 00:01 35.02993 -89.97816 334 ft 28 kts 179°
2026-05-07 00:01 35.02793 -89.97811 335 ft 29 kts 179°
2026-05-07 00:01 35.02589 -89.97808 335 ft 30 kts 179°
2026-05-07 00:02 35.02414 -89.97741 334 ft 25 kts 105°
2026-05-07 00:02 35.02451 -89.97561 328 ft 21 kts 19°
2026-05-07 00:02 35.02561 -89.97559 331 ft 14 kts 359°
2026-05-07 00:02 35.02802 -89.97563 332 ft 70 kts 359°
2026-05-07 00:03 35.03517 -89.97579 329 ft 133 kts 359°
2026-05-07 00:03 35.04529 -89.97591 782 ft 145 kts
2026-05-07 00:03 35.05551 -89.97581 1497 ft 145 kts
2026-05-07 00:03 35.06566 -89.97615 2157 ft 151 kts 359°
2026-05-07 00:04 35.07702 -89.97572 2494 ft 175 kts
2026-05-07 00:04 35.08881 -89.97046 2832 ft 198 kts 37°
2026-05-07 00:04 35.10042 -89.95960 3282 ft 222 kts 34°
2026-05-07 00:04 35.11428 -89.94849 3798 ft 247 kts 30°
2026-05-07 00:05 35.12925 -89.93678 4472 ft 265 kts 33°
2026-05-07 00:05 35.14084 -89.91842 5186 ft 286 kts 68°
2026-05-07 00:05 35.14416 -89.89411 6001 ft 297 kts 87°
2026-05-07 00:05 35.14417 -89.86870 6794 ft 306 kts 94°
2026-05-07 00:06 35.14298 -89.84212 7659 ft 313 kts 94°
2026-05-07 00:06 35.14423 -89.81567 8522 ft 320 kts 82°
2026-05-07 00:06 35.14775 -89.78860 9396 ft 326 kts 80°
2026-05-07 00:06 35.15206 -89.76071 10218 ft 333 kts 79°
2026-05-07 00:07 35.15681 -89.73243 10542 ft 357 kts 78°
2026-05-07 00:07 35.16212 -89.70199 11077 ft 371 kts 78°
2026-05-07 00:07 35.16759 -89.67070 11745 ft 381 kts 78°
2026-05-07 00:07 35.17310 -89.63876 12502 ft 388 kts 79°
2026-05-07 00:08 35.17863 -89.60618 13238 ft 395 kts 79°
2026-05-07 00:08 35.18415 -89.57304 13947 ft 402 kts 79°
2026-05-07 00:08 35.18975 -89.53918 14594 ft 410 kts 79°
2026-05-07 00:08 35.19544 -89.50476 15238 ft 416 kts 80°
2026-05-07 00:09 35.19915 -89.46947 15854 ft 421 kts 88°
2026-05-07 00:09 35.20152 -89.43344 16491 ft 428 kts 89°
2026-05-07 00:09 35.20391 -89.39699 17129 ft 434 kts 89°
2026-05-07 00:09 35.20636 -89.35986 17763 ft 440 kts 89°
2026-05-07 00:10 35.20884 -89.32227 18377 ft 447 kts 89°
2026-05-07 00:10 35.21135 -89.28421 18932 ft 452 kts 89°
2026-05-07 00:10 35.21399 -89.24578 19522 ft 456 kts 86°
2026-05-07 00:10 35.21975 -89.20736 20116 ft 463 kts 76°
2026-05-07 00:11 35.22934 -89.16956 20733 ft 466 kts 72°
2026-05-07 00:11 35.23925 -89.13169 21355 ft 469 kts 71°
2026-05-07 00:11 35.25145 -89.09470 21963 ft 471 kts 61°
2026-05-07 00:11 35.26618 -89.05869 22571 ft 474 kts 60°
2026-05-07 00:12 35.28098 -89.02265 23173 ft 477 kts 60°
2026-05-07 00:12 35.29595 -88.98619 23759 ft 480 kts 60°
2026-05-07 00:12 35.31098 -88.94951 24228 ft 485 kts 60°
2026-05-07 00:12 35.32616 -88.91232 24674 ft 490 kts 60°
2026-05-07 00:13 35.34144 -88.87482 25108 ft 494 kts 60°
2026-05-07 00:13 35.35684 -88.83699 25525 ft 499 kts 60°
2026-05-07 00:13 35.37239 -88.79868 25941 ft 504 kts 60°
2026-05-07 00:13 35.38805 -88.76004 26349 ft 509 kts 61°
2026-05-07 00:14 35.40383 -88.72107 26743 ft 513 kts 61°
2026-05-07 00:14 35.41978 -88.68180 27136 ft 518 kts 60°
2026-05-07 00:14 35.43591 -88.64204 27514 ft 522 kts 61°
2026-05-07 00:14 35.45216 -88.60191 27902 ft 527 kts 61°
2026-05-07 00:15 35.46853 -88.56142 28287 ft 531 kts 61°
2026-05-07 00:15 35.48497 -88.52065 28670 ft 536 kts 61°
2026-05-07 00:15 35.50157 -88.47938 29050 ft 540 kts 61°
2026-05-07 00:15 35.51824 -88.43785 29437 ft 545 kts 61°
2026-05-07 00:16 35.53503 -88.39607 29817 ft 549 kts 61°
2026-05-07 00:16 35.55197 -88.35386 30181 ft 553 kts 61°
2026-05-07 00:16 35.56904 -88.31128 30501 ft 557 kts 61°
2026-05-07 00:16 35.58617 -88.26848 30833 ft 560 kts 61°
2026-05-07 00:17 35.60340 -88.22543 31165 ft 563 kts 61°
2026-05-07 00:17 35.62070 -88.18215 31484 ft 566 kts 62°
2026-05-07 00:17 35.63803 -88.13866 31807 ft 569 kts 62°
2026-05-07 00:17 35.65544 -88.09490 32117 ft 572 kts 62°
2026-05-07 00:18 35.67292 -88.05088 32478 ft 573 kts 62°
2026-05-07 00:18 35.69035 -88.00688 32909 ft 573 kts 62°
2026-05-07 00:18 35.70780 -87.96278 33340 ft 573 kts 62°
2026-05-07 00:18 35.72526 -87.91872 33761 ft 573 kts 62°
2026-05-07 00:19 35.74276 -87.87457 34159 ft 573 kts 62°
2026-05-07 00:19 35.76022 -87.83045 34521 ft 574 kts 62°
2026-05-07 00:19 35.77761 -87.78631 34876 ft 574 kts 62°
2026-05-07 00:19 35.79461 -87.74177 35224 ft 575 kts 64°
2026-05-07 00:20 35.81058 -87.69653 35576 ft 575 kts 65°
2026-05-07 00:20 35.82558 -87.65075 35922 ft 576 kts 67°
2026-05-07 00:20 35.83998 -87.60466 36265 ft 576 kts 68°
2026-05-07 00:20 35.85422 -87.55857 36596 ft 576 kts 67°
2026-05-07 00:21 35.86869 -87.51246 36907 ft 576 kts 66°
2026-05-07 00:21 35.88342 -87.46655 37034 ft 575 kts 65°
2026-05-07 00:21 35.91340 -87.37556 37051 ft 576 kts 65°
2026-05-07 00:22 35.94414 -87.28314 37050 ft 585 kts 65°
2026-05-07 00:22 35.97455 -87.18982 37046 ft 587 kts 66°
2026-05-07 00:23 36.00464 -87.09609 37050 ft 587 kts 66°
2026-05-07 00:23 36.03483 -87.00242 37036 ft 587 kts 65°
2026-05-07 00:24 36.06511 -86.90867 37026 ft 587 kts 65°
2026-05-07 00:24 36.09532 -86.81495 37019 ft 587 kts 65°
2026-05-07 00:25 36.12534 -86.72113 37013 ft 587 kts 66°
2026-05-07 00:25 36.15539 -86.62711 37014 ft 587 kts 65°
2026-05-07 00:26 36.18585 -86.53322 37016 ft 587 kts 65°
2026-05-07 00:26 36.21642 -86.43952 37027 ft 587 kts 65°
2026-05-07 00:27 36.24683 -86.34560 37025 ft 588 kts 65°
2026-05-07 00:27 36.27704 -86.25145 37029 ft 588 kts 65°
2026-05-07 00:28 36.30698 -86.15769 37022 ft 589 kts 65°
2026-05-07 00:28 36.33711 -86.06343 37027 ft 589 kts 65°
2026-05-07 00:29 36.36720 -85.96899 37033 ft 588 kts 65°
2026-05-07 00:30 36.42707 -85.77981 37027 ft 588 kts 65°
2026-05-07 00:30 36.45691 -85.68524 37024 ft 588 kts 65°
2026-05-07 00:31 36.48669 -85.59063 37019 ft 588 kts 65°
2026-05-07 00:31 36.51643 -85.49584 37019 ft 589 kts 65°
2026-05-07 00:32 36.54599 -85.40100 37020 ft 589 kts 65°
2026-05-07 00:32 36.57548 -85.30582 37026 ft 589 kts 66°
2026-05-07 00:33 36.60502 -85.21068 37026 ft 589 kts 65°
2026-05-07 00:33 36.63459 -85.11567 37038 ft 589 kts 65°
2026-05-07 00:34 36.66399 -85.02032 37055 ft 590 kts 65°
2026-05-07 00:34 36.69319 -84.92488 37061 ft 590 kts 66°
2026-05-07 00:35 36.72231 -84.82919 37071 ft 591 kts 66°
2026-05-07 00:35 36.75141 -84.73330 37072 ft 591 kts 66°
2026-05-07 00:36 36.78067 -84.63768 37063 ft 590 kts 65°
2026-05-07 00:36 36.80967 -84.54188 37022 ft 590 kts 66°
2026-05-07 00:37 36.83855 -84.44597 37048 ft 590 kts 66°
2026-05-07 00:37 36.86741 -84.35006 37059 ft 590 kts 66°
2026-05-07 00:38 36.89607 -84.25471 37066 ft 590 kts 66°
2026-05-07 00:38 36.92010 -84.17430 37062 ft 590 kts 66°
2026-05-07 00:39 36.94857 -84.07822 37030 ft 590 kts 66°
2026-05-07 00:39 36.97712 -83.98204 37030 ft 590 kts 66°
2026-05-07 00:40 37.00560 -83.88587 37022 ft 589 kts 66°
2026-05-07 00:40 37.03397 -83.78967 37015 ft 589 kts 66°
2026-05-07 00:41 37.06223 -83.69329 37022 ft 590 kts 66°
2026-05-07 00:41 37.09043 -83.59709 37013 ft 590 kts 66°
2026-05-07 00:42 37.11863 -83.50047 37013 ft 589 kts 66°
2026-05-07 00:42 37.14661 -83.40399 37033 ft 589 kts 66°
2026-05-07 00:43 37.17460 -83.30730 37033 ft 590 kts 66°
2026-05-07 00:43 37.20227 -83.21119 37034 ft 589 kts 66°
2026-05-07 00:44 37.23021 -83.11386 37039 ft 589 kts 66°
2026-05-07 00:44 37.25791 -83.01716 37031 ft 589 kts 66°
2026-05-07 00:45 37.28562 -82.92048 37018 ft 589 kts 66°
2026-05-07 00:45 37.31291 -82.82418 37007 ft 589 kts 66°
2026-05-07 00:46 37.34033 -82.72729 37021 ft 588 kts 66°
2026-05-07 00:46 37.36771 -82.63044 37028 ft 588 kts 66°
2026-05-07 00:47 37.39491 -82.53381 37024 ft 587 kts 66°
2026-05-07 00:47 37.42196 -82.43662 37019 ft 587 kts 66°
2026-05-07 00:48 37.44900 -82.33966 37016 ft 587 kts 66°
2026-05-07 00:48 37.47606 -82.24280 37008 ft 586 kts 66°
2026-05-07 00:49 37.50300 -82.14596 36986 ft 586 kts 66°
2026-05-07 00:49 37.52967 -82.04901 36977 ft 585 kts 66°
2026-05-07 00:50 37.55637 -81.95207 36974 ft 585 kts 66°
2026-05-07 00:50 37.58292 -81.85585 36973 ft 585 kts 66°
2026-05-07 00:51 37.60939 -81.75883 36969 ft 585 kts 67°
2026-05-07 00:51 37.63564 -81.66180 36970 ft 585 kts 67°
2026-05-07 00:52 37.66198 -81.56473 36966 ft 584 kts 67°
2026-05-07 00:52 37.68832 -81.46713 36980 ft 584 kts 67°
2026-05-07 00:53 37.71447 -81.36997 36991 ft 584 kts 67°
2026-05-07 00:53 37.74052 -81.27281 36996 ft 584 kts 67°
2026-05-07 00:54 37.76653 -81.17549 36999 ft 584 kts 67°
2026-05-07 00:54 37.78364 -81.07470 36992 ft 589 kts 85°
2026-05-07 00:55 37.79049 -80.97151 36983 ft 589 kts 85°
2026-05-07 00:55 37.79755 -80.86837 36974 ft 589 kts 84°
2026-05-07 00:56 37.80447 -80.76498 36960 ft 590 kts 85°
2026-05-07 00:56 37.81097 -80.66157 36961 ft 589 kts 85°
2026-05-07 00:57 37.81748 -80.55841 36971 ft 589 kts 85°
2026-05-07 00:57 37.82408 -80.45502 36981 ft 589 kts 84°
2026-05-07 00:58 37.83063 -80.35210 36982 ft 588 kts 85°
2026-05-07 00:58 37.83696 -80.24891 36975 ft 588 kts 85°
2026-05-07 00:59 37.84613 -80.09355 36940 ft 587 kts 85°
2026-05-07 01:00 37.85210 -79.99109 36976 ft 587 kts 85°
2026-05-07 01:00 37.85812 -79.88837 36995 ft 587 kts 85°
2026-05-07 01:01 37.86404 -79.78505 36994 ft 587 kts 85°
2026-05-07 01:01 37.86946 -79.68205 36981 ft 586 kts 86°
2026-05-07 01:01 37.87144 -79.63066 37090 ft 586 kts 87°
2026-05-07 01:02 37.87296 -79.57913 37104 ft 585 kts 88°
2026-05-07 01:02 37.87564 -79.47620 37109 ft 586 kts 88°
2026-05-07 01:03 37.87872 -79.37334 37108 ft 586 kts 87°
2026-05-07 01:03 37.88751 -79.27089 37054 ft 583 kts 78°
2026-05-07 01:04 37.89971 -79.16932 36984 ft 583 kts 79°
2026-05-07 01:04 37.91137 -79.06715 36915 ft 583 kts 79°
2026-05-07 01:05 37.92289 -78.96614 36901 ft 583 kts 79°
2026-05-07 01:05 37.93454 -78.86401 36886 ft 581 kts 79°
2026-05-07 01:06 37.94604 -78.76350 36898 ft 582 kts 79°
2026-05-07 01:06 37.95763 -78.66195 36906 ft 580 kts 79°
2026-05-07 01:07 37.96905 -78.56028 36891 ft 574 kts 79°
2026-05-07 01:07 37.97454 -78.51060 36463 ft 568 kts 79°
2026-05-07 01:07 37.98008 -78.46040 35320 ft 579 kts 80°
2026-05-07 01:07 37.98566 -78.40974 34338 ft 582 kts 80°
2026-05-07 01:08 37.99124 -78.35901 33433 ft 581 kts 81°
2026-05-07 01:08 37.99682 -78.30834 32482 ft 579 kts 81°
2026-05-07 01:08 38.00234 -78.25778 31537 ft 577 kts 82°
2026-05-07 01:08 38.00878 -78.20766 30603 ft 574 kts 77°
2026-05-07 01:09 38.01969 -78.15918 29646 ft 570 kts 69°
2026-05-07 01:09 38.03534 -78.11376 29144 ft 553 kts 59°
2026-05-07 01:09 38.05447 -78.07226 28891 ft 540 kts 53°
2026-05-07 01:10 38.09442 -77.99223 28912 ft 535 kts 53°
2026-05-07 01:10 38.13414 -77.91228 28911 ft 535 kts 53°
2026-05-07 01:11 38.17389 -77.83229 28893 ft 536 kts 53°
2026-05-07 01:11 38.21374 -77.75221 28890 ft 536 kts 53°
2026-05-07 01:12 38.25356 -77.67200 28888 ft 537 kts 53°
2026-05-07 01:12 38.29334 -77.59163 28888 ft 537 kts 53°
2026-05-07 01:13 38.33303 -77.51114 28898 ft 537 kts 53°
2026-05-07 01:13 38.37259 -77.43051 28897 ft 536 kts 53°
2026-05-07 01:14 38.41209 -77.34980 28896 ft 536 kts 53°
2026-05-07 01:14 38.45161 -77.26909 28916 ft 536 kts 53°
2026-05-07 01:15 38.49110 -77.18830 28913 ft 536 kts 53°
2026-05-07 01:15 38.53044 -77.10740 28905 ft 537 kts 53°
2026-05-07 01:16 38.56978 -77.02629 28888 ft 537 kts 53°
2026-05-07 01:16 38.58941 -76.98579 28717 ft 537 kts 53°
2026-05-07 01:16 38.60241 -76.95895 28262 ft 536 kts 53°
2026-05-07 01:16 38.62207 -76.91835 27375 ft 537 kts 53°
2026-05-07 01:17 38.64175 -76.87765 26552 ft 536 kts 53°
2026-05-07 01:17 38.66128 -76.83714 25746 ft 535 kts 53°
2026-05-07 01:17 38.68074 -76.79669 24937 ft 533 kts 53°
2026-05-07 01:17 38.69891 -76.75542 24270 ft 533 kts 60°
2026-05-07 01:18 38.71217 -76.71150 24012 ft 524 kts 70°
2026-05-07 01:18 38.72174 -76.66673 23845 ft 516 kts 72°
2026-05-07 01:18 38.73107 -76.62248 23903 ft 515 kts 72°
2026-05-07 01:18 38.74042 -76.57816 23885 ft 515 kts 72°
2026-05-07 01:19 38.74972 -76.53386 23892 ft 515 kts 72°
2026-05-07 01:19 38.75894 -76.48964 23889 ft 515 kts 72°
2026-05-07 01:19 38.76818 -76.44533 23891 ft 514 kts 72°
2026-05-07 01:19 38.77736 -76.40106 23898 ft 514 kts 72°
2026-05-07 01:20 38.78650 -76.35677 23899 ft 514 kts 72°
2026-05-07 01:20 38.79563 -76.31246 23903 ft 514 kts 72°
2026-05-07 01:20 38.80473 -76.26813 23905 ft 514 kts 72°
2026-05-07 01:20 38.81383 -76.22378 23905 ft 514 kts 72°
2026-05-07 01:21 38.82292 -76.17950 23905 ft 514 kts 72°
2026-05-07 01:21 38.83198 -76.13518 23904 ft 514 kts 72°
2026-05-07 01:21 38.84105 -76.09085 23905 ft 514 kts 72°
2026-05-07 01:21 38.85011 -76.04649 23903 ft 514 kts 73°
2026-05-07 01:22 38.85912 -76.00216 23906 ft 514 kts 72°
2026-05-07 01:22 38.86809 -75.95783 23902 ft 514 kts 73°
2026-05-07 01:22 38.87707 -75.91336 23902 ft 513 kts 72°
2026-05-07 01:22 38.88954 -75.87075 23900 ft 507 kts 58°
2026-05-07 01:23 38.90807 -75.83295 23901 ft 496 kts 45°
2026-05-07 01:23 38.93153 -75.80131 23897 ft 483 kts 32°
2026-05-07 01:23 38.95800 -75.77552 23896 ft 477 kts 26°
2026-05-07 01:23 38.98482 -75.75036 23885 ft 478 kts 27°
2026-05-07 01:24 39.01168 -75.72501 23887 ft 478 kts 27°
2026-05-07 01:24 39.03921 -75.70037 23877 ft 470 kts 20°
2026-05-07 01:24 39.06836 -75.68313 23882 ft 453 kts
2026-05-07 01:24 39.09802 -75.67413 23882 ft 435 kts 355°
2026-05-07 01:25 39.12795 -75.67063 23881 ft 431 kts 353°
2026-05-07 01:25 39.15782 -75.66745 23880 ft 431 kts 353°
2026-05-07 01:25 39.18769 -75.66422 23880 ft 431 kts 353°
2026-05-07 01:25 39.21758 -75.66092 23880 ft 432 kts 353°
2026-05-07 01:26 39.24753 -75.65760 23879 ft 432 kts 353°
2026-05-07 01:26 39.27760 -75.65047 23865 ft 449 kts
2026-05-07 01:26 39.30675 -75.63425 23417 ft 466 kts 21°
2026-05-07 01:26 39.33220 -75.60749 22818 ft 481 kts 40°
2026-05-07 01:27 39.35149 -75.57176 22267 ft 490 kts 59°
2026-05-07 01:27 39.36268 -75.53011 21756 ft 492 kts 78°
2026-05-07 01:27 39.36474 -75.48626 21288 ft 487 kts 96°
2026-05-07 01:27 39.35763 -75.44415 20819 ft 475 kts 115°
2026-05-07 01:28 39.34224 -75.40741 20379 ft 458 kts 134°
2026-05-07 01:28 39.32027 -75.37908 19946 ft 437 kts 152°
2026-05-07 01:28 39.29426 -75.36109 19492 ft 417 kts 167°
2026-05-07 01:28 39.26739 -75.34762 18998 ft 413 kts 168°
2026-05-07 01:29 39.24059 -75.33466 18524 ft 410 kts 168°
2026-05-07 01:29 39.21392 -75.32203 18041 ft 406 kts 168°
2026-05-07 01:29 39.18749 -75.30973 17530 ft 403 kts 168°
2026-05-07 01:29 39.16119 -75.29763 17041 ft 398 kts 168°
2026-05-07 01:30 39.13523 -75.28580 16575 ft 394 kts 168°
2026-05-07 01:30 39.10951 -75.27421 16107 ft 390 kts 168°
2026-05-07 01:30 39.08406 -75.26284 15635 ft 386 kts 168°
2026-05-07 01:30 39.05875 -75.25166 15175 ft 381 kts 168°
2026-05-07 01:31 39.03380 -75.24075 14722 ft 377 kts 168°
2026-05-07 01:31 39.00906 -75.23004 14271 ft 373 kts 168°
2026-05-07 01:31 38.98424 -75.22248 13827 ft 360 kts 181°
2026-05-07 01:31 38.95992 -75.22419 13376 ft 344 kts 198°
2026-05-07 01:32 38.93795 -75.23457 12847 ft 332 kts 213°
2026-05-07 01:32 38.91984 -75.25205 12322 ft 322 kts 229°
2026-05-07 01:32 38.90653 -75.27469 11789 ft 316 kts 243°
2026-05-07 01:32 38.89858 -75.30072 11268 ft 313 kts 256°
2026-05-07 01:33 38.89649 -75.32847 11038 ft 315 kts 270°
2026-05-07 01:33 38.90012 -75.35631 11016 ft 320 kts 283°
2026-05-07 01:33 38.90962 -75.38248 11021 ft 328 kts 298°
2026-05-07 01:33 38.92491 -75.40466 10999 ft 338 kts 314°
2026-05-07 01:34 38.94502 -75.42098 10999 ft 346 kts 326°
2026-05-07 01:34 38.96628 -75.43530 11000 ft 346 kts 326°
2026-05-07 01:34 38.98758 -75.44980 10999 ft 346 kts 326°
2026-05-07 01:34 39.00884 -75.46435 10997 ft 346 kts 325°
2026-05-07 01:35 39.03011 -75.47895 11000 ft 346 kts 325°
2026-05-07 01:35 39.05136 -75.49356 10999 ft 346 kts 325°
2026-05-07 01:35 39.07264 -75.50814 10998 ft 346 kts 326°
2026-05-07 01:35 39.09385 -75.52263 11000 ft 346 kts 326°
2026-05-07 01:36 39.11510 -75.53717 11000 ft 346 kts 326°
2026-05-07 01:36 39.13635 -75.55172 11001 ft 346 kts 326°
2026-05-07 01:36 39.15758 -75.56628 10999 ft 346 kts 326°
2026-05-07 01:36 39.17880 -75.58086 11003 ft 345 kts 325°
2026-05-07 01:37 39.20001 -75.59549 10999 ft 345 kts 325°
2026-05-07 01:37 39.22121 -75.61013 10998 ft 345 kts 325°
2026-05-07 01:37 39.24351 -75.62222 10995 ft 355 kts 340°
2026-05-07 01:37 39.26851 -75.62451 10998 ft 369 kts
2026-05-07 01:38 39.29340 -75.61510 11002 ft 381 kts 22°
2026-05-07 01:38 39.31439 -75.59451 10996 ft 390 kts 45°
2026-05-07 01:38 39.33049 -75.56619 10999 ft 392 kts 54°
2026-05-07 01:38 39.34657 -75.53723 10934 ft 389 kts 47°
2026-05-07 01:39 39.36544 -75.51265 10423 ft 384 kts 41°
2026-05-07 01:39 39.38469 -75.48892 9940 ft 381 kts 40°
2026-05-07 01:39 39.40353 -75.46598 9792 ft 365 kts 40°
2026-05-07 01:39 39.42163 -75.44396 9667 ft 347 kts 40°
2026-05-07 01:40 39.43858 -75.42331 9530 ft 331 kts 40°
2026-05-07 01:40 39.45508 -75.40316 9215 ft 323 kts 40°
2026-05-07 01:40 39.47158 -75.38300 8777 ft 319 kts 40°
2026-05-07 01:40 39.48737 -75.36366 8353 ft 315 kts 40°
2026-05-07 01:41 39.50340 -75.34393 7911 ft 312 kts 40°
2026-05-07 01:41 39.51886 -75.32484 7476 ft 309 kts 40°
2026-05-07 01:41 39.53437 -75.30576 7086 ft 306 kts 40°
2026-05-07 01:41 39.54976 -75.28679 6992 ft 305 kts 40°
2026-05-07 01:42 39.56520 -75.26774 7007 ft 307 kts 40°
2026-05-07 01:42 39.58066 -75.24866 7007 ft 307 kts 40°
2026-05-07 01:42 39.59613 -75.22959 7004 ft 307 kts 40°
2026-05-07 01:42 39.61159 -75.21050 7004 ft 307 kts 40°
2026-05-07 01:43 39.62704 -75.19140 6997 ft 307 kts 40°
2026-05-07 01:43 39.64251 -75.17225 6999 ft 307 kts 40°
2026-05-07 01:43 39.65794 -75.15315 7000 ft 306 kts 40°
2026-05-07 01:43 39.67335 -75.13405 6976 ft 306 kts 40°
2026-05-07 01:44 39.68864 -75.11507 6632 ft 303 kts 40°
2026-05-07 01:44 39.70381 -75.09621 6265 ft 301 kts 40°
2026-05-07 01:44 39.71887 -75.07745 6007 ft 298 kts 40°
2026-05-07 01:44 39.73383 -75.05879 5998 ft 299 kts 40°
2026-05-07 01:45 39.74888 -75.04006 5998 ft 300 kts 40°
2026-05-07 01:45 39.76398 -75.02129 5999 ft 300 kts 40°
2026-05-07 01:45 39.77901 -75.00255 5998 ft 298 kts 40°
2026-05-07 01:45 39.79344 -74.98449 5994 ft 277 kts 40°
2026-05-07 01:46 39.80683 -74.96768 5998 ft 260 kts 40°
2026-05-07 01:46 39.81979 -74.95165 5939 ft 255 kts 37°
2026-05-07 01:46 39.83462 -74.93987 5661 ft 247 kts 20°
2026-05-07 01:46 39.85016 -74.93054 5397 ft 245 kts 18°
2026-05-07 01:47 39.86567 -74.92152 5134 ft 244 kts 18°
2026-05-07 01:47 39.88118 -74.91259 4876 ft 243 kts 18°
2026-05-07 01:47 39.89660 -74.90379 4612 ft 241 kts 18°
2026-05-07 01:47 39.91191 -74.89626 4477 ft 227 kts
2026-05-07 01:48 39.92650 -74.89845 4351 ft 202 kts 326°
2026-05-07 01:48 39.93583 -74.91009 4225 ft 179 kts 289°
2026-05-07 01:48 39.93662 -74.92516 4091 ft 166 kts 250°
2026-05-07 01:48 39.93038 -74.93725 3961 ft 162 kts 234°
2026-05-07 01:49 39.92656 -74.95044 3731 ft 157 kts 269°
2026-05-07 01:49 39.92642 -74.96463 3495 ft 158 kts 258°
2026-05-07 01:49 39.92353 -74.97869 3244 ft 160 kts 256°
2026-05-07 01:49 39.92080 -74.99252 3078 ft 158 kts 257°
2026-05-07 01:50 39.91803 -75.00659 3005 ft 158 kts 257°
2026-05-07 01:50 39.91530 -75.02044 2988 ft 158 kts 257°
2026-05-07 01:50 39.91259 -75.03419 2862 ft 159 kts 257°
2026-05-07 01:50 39.90981 -75.04830 2682 ft 158 kts 257°
2026-05-07 01:51 39.90707 -75.06215 2490 ft 158 kts 257°
2026-05-07 01:51 39.90433 -75.07604 2289 ft 158 kts 257°
2026-05-07 01:51 39.90159 -75.08988 2080 ft 157 kts 257°
2026-05-07 01:51 39.89897 -75.10312 1890 ft 141 kts 257°
2026-05-07 01:52 39.89659 -75.11510 1697 ft 133 kts 258°
2026-05-07 01:52 39.89434 -75.12660 1534 ft 130 kts 258°
2026-05-07 01:52 39.89212 -75.13780 1350 ft 129 kts 257°
2026-05-07 01:52 39.88993 -75.14906 1170 ft 129 kts 258°
2026-05-07 01:53 39.88775 -75.16028 1033 ft 127 kts 256°
2026-05-07 01:53 39.88546 -75.17142 883 ft 127 kts 257°
2026-05-07 01:53 39.88329 -75.18259 730 ft 127 kts 255°
2026-05-07 01:53 39.88103 -75.19388 578 ft 129 kts 253°
2026-05-07 01:54 39.87870 -75.20527 414 ft 132 kts 253°
2026-05-07 01:54 39.87645 -75.21655 213 ft 128 kts 252°
2026-05-07 01:54 39.87431 -75.22767 35 ft 119 kts 251°
2026-05-07 01:54 39.87289 -75.23413 26 ft 32 kts 259°
2026-05-07 01:55 39.87264 -75.23578 27 ft 8 kts 258°
2026-05-07 01:55 39.87266 -75.23706 27 ft 12 kts 315°
2026-05-07 01:55 39.87339 -75.23730 27 ft 0 kts
2026-05-07 01:55 39.87345 -75.23730 28 ft 2 kts
2026-05-07 01:56 39.87374 -75.23726 27 ft 8 kts
2026-05-07 01:56 39.87460 -75.23706 27 ft 2 kts 17°
2026-05-07 01:56 39.87467 -75.23713 26 ft 3 kts 326°
2026-05-07 01:56 39.87498 -75.23756 27 ft 5 kts 311°
2026-05-07 01:57 39.87505 -75.23765 26 ft 0 kts 313°